Regional Weather Roundup
Issued by NWS Midland/Odessa, TX

Skip options and go directly to product.
Home | Oldest Version | Previous Version | Current Version | All | Text Only | Save Text | Print | Product List | Glossary Off

Skip product version selection by date and time.   

170
ASUS44 KMAF 230010
RWRMAF
MIDLAND AREA WEATHER ROUNDUP
NATIONAL WEATHER SERVICE MIDLAND TX
700 PM CDT WED OCT 22 2014

...IN SOUTHWEST TEXAS AND SOUTHEAST NEW MEXICO...

CITY           SKY/WX    TMP DP  RH WIND       PRES   REMARKS
ALPINE         PTCLDY    67  58  74 S12       30.17R
ANDREWS        CLOUDY    68  60  76 SE6       30.10R
ARTESIA        NOT AVBL
BIG SPRING     MOCLDY    67  60  76 SE6       30.12R
CARLSBAD       PTCLDY    71  60  68 SE5       30.05R
DRYDEN           N/A     66  60  81 E12       30.08R
FORT STOCKTON  MOCLDY    69  59  70 SE13G22   30.08R
GUAD PASS      PTCLDY    62  56  80 E12       30.18R
HOBBS          PTCLDY    70  57  64 SE7       30.10R
MARFA          PTCLDY    66  57  72 S8        30.16R
MIDLAND AIRPK  MOCLDY    71  56  59 SE8       30.10R
MIDLAND INTL   MOCLDY    71  55  56 S16       30.09R
ODESSA         MOCLDY    70  55  59 S13       30.10R
PECOS          PTCLDY    72  62  70 E12       30.04R
PRESIDIO       FAIR      78  57  48 S3        30.03R
SEMINOLE       CLOUDY    63  57  83 S9        30.11S
SNYDER         MOCLDY    63  61  95 E6        30.12R
WINK           PTCLDY    67  60  78 SE10      30.06R
$$
...OTHER STATIONS IN TEXAS...

CITY           SKY/WX    TMP DP  RH WIND       PRES   REMARKS
ABILENE        CLOUDY    69  59  70 NE3       30.11R
AMARILLO       CLOUDY    63  61  93 SE13      30.08R FOG
AUSTIN         MOCLDY    76  60  57 E9        30.05R
BROWNSVILLE    CLEAR     78  68  71 NE7       29.98R
CORPUS CHRISTI PTCLDY    77  66  68 E13       30.02R
DALLAS FTW     CLOUDY    76  56  49 E7        30.08R
DEL RIO        LGT RAIN  65  62  90 CALM      30.07S FOG
EL PASO        PTCLDY    75  53  46 N6        30.07S
HOUSTON INT    PTCLDY    73  58  59 NE6       30.05R
LUBBOCK        MOCLDY    63  60  90 SE14      30.09S
SAN ANGELO     CLOUDY    70  54  56 SW7       30.10R
SAN ANTONIO    CLOUDY    80  55  42 E6        30.05R
WACO           MOCLDY    74  58  57 E3        30.08R
WICHITA FALLS  NOT AVBL
$$
...OTHER LOCATIONS IN NEW MEXICO...

CITY           SKY/WX    TMP DP  RH WIND       PRES   REMARKS
ALAMAGORDO     NOT AVBL
ALBUQUERQUE    PTCLDY    72  37  28 W3        30.13S
CANNON AFB     CLEAR     70  51  50 S9        30.07R
CLOVIS         CLEAR     70  50  49 S8        30.09S
HOLLOMAN AFB   CLEAR     72  52  49 SE3       30.08S
ROSWELL        CLEAR     71  57  61 SE8       30.06S
RUIDOSO        PTCLDY    63  43  48 NW7       30.23S
SANTA FE       PTCLDY    65  38  36 NE7       30.16S
TRUTH OR CONSE CLEAR     72  45  37 S7        30.11R
TUCUMCARI      HVY RAIN  67  57  70 SE5       30.03R
$$

USA.gov is the U.S. government's official web portal to all federal, state and local government web resources and services.